Location: La Sioule Rivi�re
(46.3664°N, 3.3197°E)
Time: 12:21:28
(UTC+00:00)

FALCON 9 DEB - Pass Details

Date: 29 October 2020
Orbit: 382 x 399 km, 53.0° (Epoch: 23 November)

Event Time Altitude Azimuth Distance (km) Brightness Sun altitude
Rises 18:15:50 0° 268° (W) 2,315 8.6 -17.7°
Reaches altitude 10° 18:18:03 10° 279° (W) 1,455 7.0 -18.1°
Maximum altitude 18:21:01 32° 345° (NNW) 720 4.3 -18.6°
Enters shadow 18:21:40 29° 9° (N) 769 4.2 -18.7°
